Location: Tamazert
(32.6352°N, 5.2072°W)
Time: 05:23:41
(UTC+00:00)

Vanguard 2 - Pass Details

Date: 10 October 2022
Orbit: 553 x 2933 km, 32.9° (Epoch: 26 November)

Event Time Altitude Azimuth Distance (km) Brightness Sun altitude
Rises 16:59:49 0° 284° (WNW) 5,516 13.1 10.4°
Reaches altitude 10° 17:03:11 10° 279° (W) 4,788 13.1 9.7°
Maximum altitude 17:16:55 49° 210° (SSW) 3,346 11.3 6.9°
Drops below altitude 10° 17:33:37 10° 143° (SE) 5,700 11.7 3.4°
Sets 17:38:07 0° 138° (SE) 6,600 12.0 2.5°
